SB KEPS @ AMSAT $ORB09204.O Orbital Elements 09204.OSCAR
HR AMSAT ORBITAL ELEMENTS FOR OSCAR SATELLITES FROM WA5QGD FORT WORTH,TX July 23, 2009 Send Subscribe/unsubscribe to KEPS at http://www.amsat.org/mailman/listinfo/keps BID: ORB09204.O TO ALL RADIO AMATEURS BT
Satellite: AO-07 Catalog number: 07530 Epoch time: 09204.56027600 Element set: 536 Inclination: 101.4243 deg RA of node: 227.8992 deg Eccentricity: 0.0011645 Arg of perigee: 196.9255 deg Mean anomaly: 163.1433 deg Mean motion: 12.53575954 rev/day Decay rate: -2.7e-07 rev/day^2 Epoch rev: 58727 Checksum: 302
Satellite: FO-29 Catalog number: 24278 Epoch time: 09203.64704197 Element set: 0092 Inclination: 098.5487 deg RA of node: 072.9103 deg Eccentricity: 0.0349742 Arg of perigee: 258.4962 deg Mean anomaly: 097.6716 deg Mean motion: 13.52944217 rev/day Decay rate: 2.0e-08 rev/day^2 Epoch rev: 63854 Checksum: 339
Satellite: SO-33 Catalog number: 25509 Epoch time: 09203.42259103 Element set: 503 Inclination: 031.4343 deg RA of node: 213.2517 deg Eccentricity: 0.0354772 Arg of perigee: 286.5546 deg Mean anomaly: 069.6413 deg Mean motion: 14.28257545 rev/day Decay rate: -7.2e-07 rev/day^2 Epoch rev: 56087 Checksum: 297
Satellite: RS-22 Catalog number: 27939 Epoch time: 09203.68695170 Element set: 0848 Inclination: 097.9388 deg RA of node: 077.2565 deg Eccentricity: 0.0014222 Arg of perigee: 024.7177 deg Mean anomaly: 335.4713 deg Mean motion: 14.63329979 rev/day Decay rate: 3.5e-07 rev/day^2 Epoch rev: 31076 Checksum: 340
Satellite: VO-52 Catalog number: 28650 Epoch time: 09203.91098911 Element set: 0279 Inclination: 097.7418 deg RA of node: 264.3086 deg Eccentricity: 0.0025900 Arg of perigee: 272.8036 deg Mean anomaly: 087.0208 deg Mean motion: 14.81602187 rev/day Decay rate: -1.88e-06 rev/day^2 Epoch rev: 22793 Checksum: 321
/EX SB KEPS @ AMSAT $ORB09204.D Orbital Elements 09204.MICROS
HR AMSAT ORBITAL ELEMENTS FOR THE MICROSATS FROM WA5QGD FORT WORTH,TX July 23, 2009 Send Subscribe/unsubscribe to KEPS at http://www.amsat.org/mailman/listinfo/keps BID: ORB09204.D TO ALL RADIO AMATEURS BT
Satellite: AO-16 Catalog number: 20439 Epoch time: 09203.91330159 Element set: 0658 Inclination: 098.2810 deg RA of node: 170.6938 deg Eccentricity: 0.0011967 Arg of perigee: 066.2603 deg Mean anomaly: 293.9833 deg Mean motion: 14.31829060 rev/day Decay rate: 6.0e-08 rev/day^2 Epoch rev: 01826 Checksum: 304
Satellite: LO-19 Catalog number: 20442 Epoch time: 09203.68495298 Element set: 0574 Inclination: 098.2433 deg RA of node: 177.6011 deg Eccentricity: 0.0012795 Arg of perigee: 064.4375 deg Mean anomaly: 295.8124 deg Mean motion: 14.32063754 rev/day Decay rate: -6.7e-07 rev/day^2 Epoch rev: 01839 Checksum: 320
Satellite: AO-27 Catalog number: 22825 Epoch time: 09203.84867716 Element set: 0298 Inclination: 098.4371 deg RA of node: 156.1529 deg Eccentricity: 0.0008721 Arg of perigee: 153.5701 deg Mean anomaly: 206.5926 deg Mean motion: 14.29269033 rev/day Decay rate: -1.45e-06 rev/day^2 Epoch rev: 82500 Checksum: 314
Satellite: IO-26 Catalog number: 22826 Epoch time: 09203.83260139 Element set: 0025 Inclination: 098.4316 deg RA of node: 156.8697 deg Eccentricity: 0.0009234 Arg of perigee: 149.5720 deg Mean anomaly: 210.6004 deg Mean motion: 14.29521811 rev/day Decay rate: -1.1e-07 rev/day^2 Epoch rev: 82510 Checksum: 277
Satellite: GO-32 Catalog number: 25397 Epoch time: 09203.71790884 Element set: 0949 Inclination: 098.3253 deg RA of node: 224.1537 deg Eccentricity: 0.0002016 Arg of perigee: 124.8900 deg Mean anomaly: 235.2458 deg Mean motion: 14.23161618 rev/day Decay rate: 4.5e-07 rev/day^2 Epoch rev: 57318 Checksum: 304
Satellite: NO-44 Catalog number: 26931 Epoch time: 09203.82531276 Element set: 0224 Inclination: 067.0534 deg RA of node: 332.5288 deg Eccentricity: 0.0006091 Arg of perigee: 278.2923 deg Mean anomaly: 081.7504 deg Mean motion: 14.29560759 rev/day Decay rate: -2.62e-06 rev/day^2 Epoch rev: 40767 Checksum: 308
Satellite: SO-50 Catalog number: 27607 Epoch time: 09203.66519546 Element set: 0943 Inclination: 064.5597 deg RA of node: 277.3383 deg Eccentricity: 0.0063603 Arg of perigee: 197.1444 deg Mean anomaly: 162.7522 deg Mean motion: 14.71448773 rev/day Decay rate: 7.4e-07 rev/day^2 Epoch rev: 35389 Checksum: 337
Satellite: CO-55 Catalog number: 27844 Epoch time: 09203.55946459 Element set: 627 Inclination: 098.7121 deg RA of node: 212.2231 deg Eccentricity: 0.0010801 Arg of perigee: 044.6314 deg Mean anomaly: 315.5742 deg Mean motion: 14.20647322 rev/day Decay rate: 1.1e-07 rev/day^2 Epoch rev: 31428 Checksum: 273
Satellite: CO-57 Catalog number: 27848 Epoch time: 09203.54194119 Element set: 0576 Inclination: 098.7151 deg RA of node: 211.2681 deg Eccentricity: 0.0010753 Arg of perigee: 046.9194 deg Mean anomaly: 313.2880 deg Mean motion: 14.20448607 rev/day Decay rate: 3.1e-07 rev/day^2 Epoch rev: 31424 Checksum: 298
Satellite: AO-51 Catalog number: 28375 Epoch time: 09203.94161844 Element set: 0443 Inclination: 098.0516 deg RA of node: 211.4592 deg Eccentricity: 0.0085149 Arg of perigee: 017.0524 deg Mean anomaly: 343.3494 deg Mean motion: 14.40647445 rev/day Decay rate: -5.0e-08 rev/day^2 Epoch rev: 26610 Checksum: 294
Satellite: CO-56 Catalog number: 28941 Epoch time: 09203.91018633 Element set: 0279 Inclination: 098.1348 deg RA of node: 025.1922 deg Eccentricity: 0.0072433 Arg of perigee: 356.7892 deg Mean anomaly: 003.2945 deg Mean motion: 15.89132430 rev/day Decay rate: 6.6373e-04 rev/day^2 Epoch rev: 19291 Checksum: 325
Satellite: GENESAT1 Catalog number: 29655 Epoch time: 09204.40438098 Element set: 764 Inclination: 040.0236 deg RA of node: 316.2667 deg Eccentricity: 0.0002464 Arg of perigee: 004.1694 deg Mean anomaly: 355.9167 deg Mean motion: 15.66281804 rev/day Decay rate: 9.481e-05 rev/day^2 Epoch rev: 14815 Checksum: 308
Satellite: CP3 Catalog number: 31129 Epoch time: 09204.14045077 Element set: 82 Inclination: 097.9854 deg RA of node: 255.4922 deg Eccentricity: 0.0102532 Arg of perigee: 173.1395 deg Mean anomaly: 187.1242 deg Mean motion: 14.52148622 rev/day Decay rate: -1.5e-07 rev/day^2 Epoch rev: 12010 Checksum: 266
Satellite: CO-65 Catalog number: 32785 Epoch time: 09202.97587372 Element set: 0436 Inclination: 097.9432 deg RA of node: 266.6521 deg Eccentricity: 0.0013873 Arg of perigee: 280.0472 deg Mean anomaly: 079.9168 deg Mean motion: 14.81500670 rev/day Decay rate: -3.8e-07 rev/day^2 Epoch rev: 06659 Checksum: 338
Satellite: KKS-1 Catalog number: 33493 Epoch time: 09204.32044164 Element set: 592 Inclination: 098.0585 deg RA of node: 316.6925 deg Eccentricity: 0.0021316 Arg of perigee: 122.8858 deg Mean anomaly: 237.4419 deg Mean motion: 14.80701851 rev/day Decay rate: 1.36e-06 rev/day^2 Epoch rev: 2681 Checksum: 294
Satellite: SOHLA-1 Catalog number: 33496 Epoch time: 09204.34037350 Element set: 556 Inclination: 098.0396 deg RA of node: 313.0886 deg Eccentricity: 0.0006854 Arg of perigee: 157.9145 deg Mean anomaly: 202.2374 deg Mean motion: 14.69440243 rev/day Decay rate: -1.6e-07 rev/day^2 Epoch rev: 2658 Checksum: 298
/EX SB KEPS @ AMSAT $ORB09204.W Orbital Elements 09204.WEATHER
HR AMSAT ORBITAL ELEMENTS FOR WEATHER SATELLITES FROM WA5QGD FORT WORTH,TX July 23, 2009 Send Subscribe/unsubscribe to KEPS at http://www.amsat.org/mailman/listinfo/keps BID: ORB09204.W TO ALL RADIO AMATEURS BT
Satellite: NOAA-10 Catalog number: 16969 Epoch time: 09203.62664804 Element set: 0696 Inclination: 098.6903 deg RA of node: 230.0792 deg Eccentricity: 0.0013168 Arg of perigee: 092.6729 deg Mean anomaly: 267.5975 deg Mean motion: 14.27390378 rev/day Decay rate: -8.3e-07 rev/day^2 Epoch rev: 18856 Checksum: 351
Satellite: NOAA-11 Catalog number: 19531 Epoch time: 09203.77752426 Element set: 0715 Inclination: 098.7850 deg RA of node: 293.1821 deg Eccentricity: 0.0011723 Arg of perigee: 011.1058 deg Mean anomaly: 349.0369 deg Mean motion: 14.14899084 rev/day Decay rate: -6.3e-07 rev/day^2 Epoch rev: 07455 Checksum: 305
Satellite: NOAA-12 Catalog number: 21263 Epoch time: 09203.97258906 Element set: 0220 Inclination: 098.7714 deg RA of node: 212.0479 deg Eccentricity: 0.0013440 Arg of perigee: 045.1831 deg Mean anomaly: 315.0438 deg Mean motion: 14.25586234 rev/day Decay rate: 3.8e-07 rev/day^2 Epoch rev: 94549 Checksum: 293
Satellite: MET-3/5 Catalog number: 21655 Epoch time: 09203.93072753 Element set: 0745 Inclination: 082.5551 deg RA of node: 181.2444 deg Eccentricity: 0.0015065 Arg of perigee: 090.3640 deg Mean anomaly: 269.9209 deg Mean motion: 13.17019217 rev/day Decay rate: 5.1e-07 rev/day^2 Epoch rev: 86233 Checksum: 290
Satellite: MET-2/21 Catalog number: 22782 Epoch time: 09203.75765513 Element set: 517 Inclination: 082.5497 deg RA of node: 153.7953 deg Eccentricity: 0.0020791 Arg of perigee: 246.2007 deg Mean anomaly: 113.6980 deg Mean motion: 13.83637293 rev/day Decay rate: 4.0e-07 rev/day^2 Epoch rev: 80252 Checksum: 305
Satellite: OKEAN-4 Catalog number: 23317 Epoch time: 09203.79965809 Element set: 969 Inclination: 082.5427 deg RA of node: 301.2539 deg Eccentricity: 0.0020458 Arg of perigee: 246.1502 deg Mean anomaly: 113.7563 deg Mean motion: 14.82709970 rev/day Decay rate: 2.20e-06 rev/day^2 Epoch rev: 79764 Checksum: 321
Satellite: NOAA-14 Catalog number: 23455 Epoch time: 09203.76929496 Element set: 0699 Inclination: 098.9087 deg RA of node: 281.3233 deg Eccentricity: 0.0010488 Arg of perigee: 091.5733 deg Mean anomaly: 268.6647 deg Mean motion: 14.13767221 rev/day Decay rate: 1.69e-06 rev/day^2 Epoch rev: 75095 Checksum: 351
Satellite: NOAA-15 Catalog number: 25338 Epoch time: 09203.93874289 Element set: 0015 Inclination: 098.5844 deg RA of node: 192.3640 deg Eccentricity: 0.0009942 Arg of perigee: 318.9699 deg Mean anomaly: 041.0760 deg Mean motion: 14.24774969 rev/day Decay rate: 1.52e-06 rev/day^2 Epoch rev: 58186 Checksum: 346
